AAL2089 KFAT-KDFW

Flight info

Callsign AAL2089
Flight time N/A
Altitude 37000
Route NTELL CABAB Q174 SKANN HOUZZ BLD J72 TURKI VKTRY2
Aircraft B738/M-SDE2E3FGHIRWXY/LB1

Departure

Time 2026-05-04 01:16
Airport Fresno Yosemite International Airport (KFAT)

Arrival

Time N/A
Airport Dallas Fort Worth International Airport (KDFW)
Time Latitude Longitude Altitude Speed Heading
2026-05-04 01:10 36.77222 -119.72002 340 ft 4 kts 41°
2026-05-04 01:10 36.77251 -119.71973 339 ft 7 kts 36°
2026-05-04 01:10 36.77293 -119.71921 337 ft 10 kts 71°
2026-05-04 01:11 36.77284 -119.71826 338 ft 12 kts 116°
2026-05-04 01:11 36.77230 -119.71726 337 ft 15 kts 125°
2026-05-04 01:11 36.77200 -119.71651 336 ft 9 kts 86°
2026-05-04 01:11 36.77206 -119.71570 337 ft 11 kts 114°
2026-05-04 01:12 36.77156 -119.71480 339 ft 14 kts 125°
2026-05-04 01:12 36.77095 -119.71373 336 ft 17 kts 126°
2026-05-04 01:12 36.77022 -119.71246 339 ft 19 kts 126°
2026-05-04 01:12 36.76940 -119.71103 339 ft 21 kts 125°
2026-05-04 01:13 36.76852 -119.70949 339 ft 22 kts 126°
2026-05-04 01:13 36.76767 -119.70790 336 ft 11 kts 108°
2026-05-04 01:13 36.76761 -119.70694 340 ft 12 kts 90°
2026-05-04 01:13 36.76761 -119.70582 340 ft 14 kts 90°
2026-05-04 01:14 36.76768 -119.70472 339 ft 2 kts 53°
2026-05-04 01:14 36.76785 -119.70460 336 ft 4 kts 29°
2026-05-04 01:14 36.76820 -119.70433 338 ft 7 kts 36°
2026-05-04 01:14 36.76869 -119.70391 338 ft 10 kts 25°
2026-05-04 01:15 36.76910 -119.70398 338 ft 0 kts 320°
2026-05-04 01:15 36.76913 -119.70404 338 ft 2 kts 304°
2026-05-04 01:15 36.76928 -119.70431 339 ft 14 kts 304°
2026-05-04 01:15 36.77132 -119.70793 336 ft 88 kts 306°
2026-05-04 01:16 36.77621 -119.71639 358 ft 148 kts 306°
2026-05-04 01:16 36.78278 -119.72773 733 ft 174 kts 306°
2026-05-04 01:16 36.78931 -119.73982 1742 ft 161 kts 304°
2026-05-04 01:16 36.79563 -119.75160 2533 ft 165 kts 306°
2026-05-04 01:17 36.80204 -119.76365 3260 ft 168 kts 304°
2026-05-04 01:17 36.80857 -119.77613 3921 ft 175 kts 304°
2026-05-04 01:17 36.81608 -119.78854 4434 ft 192 kts 321°
2026-05-04 01:17 36.82927 -119.79373 4641 ft 215 kts
2026-05-04 01:18 36.84320 -119.78549 4818 ft 238 kts 46°
2026-05-04 01:18 36.85197 -119.76684 5053 ft 262 kts 66°
2026-05-04 01:18 36.85955 -119.74570 5714 ft 270 kts 66°
2026-05-04 01:18 36.86754 -119.72432 6533 ft 272 kts 66°
2026-05-04 01:19 36.87575 -119.70295 7278 ft 276 kts 66°
2026-05-04 01:19 36.88430 -119.68116 7979 ft 282 kts 66°
2026-05-04 01:19 36.89311 -119.65909 8734 ft 285 kts 66°
2026-05-04 01:19 36.90211 -119.63681 9483 ft 289 kts 65°
2026-05-04 01:20 36.91130 -119.61423 10188 ft 294 kts 65°
2026-05-04 01:20 36.92087 -119.59081 10463 ft 315 kts 65°
2026-05-04 01:20 36.93115 -119.56576 10858 ft 329 kts 65°
2026-05-04 01:20 36.94169 -119.54017 11517 ft 334 kts 65°
2026-05-04 01:21 36.95238 -119.51430 12245 ft 337 kts 65°
2026-05-04 01:21 36.96323 -119.48804 12963 ft 342 kts 65°
2026-05-04 01:21 36.97422 -119.46143 13688 ft 346 kts 65°
2026-05-04 01:21 36.98532 -119.43456 14403 ft 350 kts 65°
2026-05-04 01:22 36.99652 -119.40742 15169 ft 352 kts 65°
2026-05-04 01:22 37.00766 -119.38041 15879 ft 356 kts 66°
2026-05-04 01:22 37.01919 -119.35242 16629 ft 358 kts 65°
2026-05-04 01:22 37.03052 -119.32491 17324 ft 363 kts 65°
2026-05-04 01:23 37.04228 -119.29629 18040 ft 366 kts 66°
2026-05-04 01:23 37.05397 -119.26784 18693 ft 369 kts 65°
2026-05-04 01:23 37.06560 -119.23949 19289 ft 373 kts 65°
2026-05-04 01:23 37.07751 -119.21048 19910 ft 375 kts 65°
2026-05-04 01:24 37.08946 -119.18131 20526 ft 378 kts 65°
2026-05-04 01:24 37.10152 -119.15186 21134 ft 381 kts 65°
2026-05-04 01:24 37.11364 -119.12222 21736 ft 383 kts 65°
2026-05-04 01:24 37.12582 -119.09241 22297 ft 386 kts 65°
2026-05-04 01:25 37.13808 -119.06235 22874 ft 389 kts 65°
2026-05-04 01:25 37.15046 -119.03200 23455 ft 392 kts 65°
2026-05-04 01:25 37.16290 -119.00145 23874 ft 397 kts 65°
2026-05-04 01:25 37.17559 -118.97027 24190 ft 404 kts 65°
2026-05-04 01:26 37.18843 -118.93869 24586 ft 409 kts 65°
2026-05-04 01:26 37.20139 -118.90679 24979 ft 413 kts 65°